Погода в Зелмени

Латвия     56°27′01″N   23°21′28″E
темп.,
°C
ветер,
м/с
пор.,
м/с
влажн.,
%
обл.,
%
осадки,
мм/ч
давл.,
гПа
погр.,
м
7 марта, вс
вс723:00+2зюз81677100 0.0 1007979
02:00+2з71578100 0.0 10041082
05:00−1с3696100 1.9 1002429
08:000зсз6136497 3.1 10021610
11:00+2зсз8154118 0.0 10042646
14:00+2зсз8135259 0.1 10042040
17:00−1сз7116194 0.1 10041640
20:00−3сз6138296 0.2 10051508
8 марта, пн
пн823:00−2ссз61378100 0.5 10051489
02:00−4ссз6118199 0.6 10081159
05:00−4ссз51083100 0.1 1010960
08:00−4ссз5875100 0.1 10121029
11:00−3ссз5870100 0.1 10151068
14:00−2с5766100 0.1 10161055
17:00−3с476484 0.0 10181009
20:00−5ссз287442 0.0 1019438
9 марта, вт
вт923:00−5сз24770 0.0 1020117
02:00−6зсз237833 0.0 102190
05:00−6з227684 0.0 102161
08:00−5зюз247185 0.0 1021144
11:00−1зюз356090 0.0 1021657
14:00+1зюз465456 0.0 10211162
17:000зюз486264 0.0 10191184
20:00−2зюз4107582 0.0 1019488
10 марта, ср
ср1023:00−2зюз41073100 0.0 1019546
02:00−1зюз41076100 0.0 1018463
05:00−1зюз4979100 0.0 1018407
08:00−1зсз358799 0.1 1018550
11:000зсз3472100 0.0 1019791
14:00−1зсз2373100 0.1 1020656
17:00−2ссв3479100 0.1 1020466
20:00−5с358486 0.1 1021344
11 марта, чт
чт1123:00−5с13857 0.0 1021249
02:00−6ссз008816 0.0 102026
05:00−6юв239034 0.0 1018109
08:00−5ююв378855 0.0 1016314
11:00−1ююв61066100 0.0 1013647
14:00+2ю71347100 0.0 10091022
17:00+1ю81551100 0.1 10051059
20:00−1ю91790100 0.6 10001019